{"data":{"norad_id":66381,"intl_designator":"2025-257B","name":"STARLINK-35158","alt_names":[],"object_type":"PAYLOAD","status":"ACTIVE","operator":null,"country":"US","launch_date":"2025-11-09","launch_site_code":"AFETR","launch_vehicle":null,"mission":null,"orbit_class":"UNKNOWN","rcs_meters":null,"size_class":null,"mass_kg":null,"dimensions":null,"purposes":["comms"],"wikipedia_slug":null,"has_3d_model":false,"image_url":null,"decayed_at":null,"tle_current":{"epoch":"2026-05-25T04:59:28.271040Z","epoch_age_seconds":51044,"freshness":"FRESH","line1":"1 66381U 25257B   26145.20796610  .00019147  00000+0  65734-3 0  9993","line2":"2 66381  53.1594 221.9715 0001749  85.9042 274.2158 15.30178592 31441","mean_motion":15.30178592,"eccentricity":0.0001749,"inclination_deg":53.1594,"raan_deg":221.9715,"arg_perigee_deg":85.9042,"mean_anomaly_deg":274.2158,"bstar":0.00065734,"rev_number":3144,"period_min":94.106662289522,"perigee_km":474.08032813698,"apogee_km":476.47765305049,"semimajor_km":6853.4159905937,"source":"CELESTRAK","updated_at":"2026-05-25T13:38:21.200066Z"}}}